Time,TemperatureF,DewpointF,PressureIn,WindDirection,WindDirectionDegrees,WindSpeedMPH,WindSpeedGustMPH,Humidity,HourlyPrecipIn,Conditions,Clouds,dailyrainin,SoftwareType,DateUTC
2013-06-23 00:00:00,74.7,-32.2,29.78,South,180,2.0,5.0,1,0.00,,,0.00,Weather View 32 v70,2013-06-23 04:00:00,
2013-06-23 00:01:00,74.7,-32.2,29.78,South,180,2.0,5.0,1,0.00,,,0.00,Weather View 32 v70,2013-06-23 04:01:00,
2013-06-23 00:06:00,74.6,-32.3,29.78,SSW,202,3.0,5.0,1,0.00,,,0.00,Weather View 32 v70,2013-06-23 04:06:00,
2013-06-23 00:11:00,74.5,-32.4,29.78,South,180,2.0,5.0,1,0.00,,,0.00,Weather View 32 v70,2013-06-23 04:11:00,
2013-06-23 00:16:00,74.3,-32.5,29.78,South,180,2.0,5.0,1,0.00,,,0.00,Weather View 32 v70,2013-06-23 04:16:00,
2013-06-23 00:21:00,74.2,-32.5,29.78,SSE,157,2.0,5.0,1,0.00,,,0.00,Weather View 32 v70,2013-06-23 04:21:00,
2013-06-23 00:26:00,74.1,-32.6,29.78,South,180,2.0,5.0,1,0.00,,,0.00,Weather View 32 v70,2013-06-23 04:26:00,
2013-06-23 00:31:00,74.2,-32.5,29.78,SSW,202,3.0,5.0,1,0.00,,,0.00,Weather View 32 v70,2013-06-23 04:31:00,
2013-06-23 00:36:00,74.2,-32.5,29.78,South,180,2.0,6.0,1,0.00,,,0.00,Weather View 32 v70,2013-06-23 04:36:00,
2013-06-23 00:41:00,74.2,-32.5,29.78,SSW,202,2.0,6.0,1,0.00,,,0.00,Weather View 32 v70,2013-06-23 04:41:00,
2013-06-23 00:46:00,74.1,-32.6,29.78,SSW,202,2.0,6.0,1,0.00,,,0.00,Weather View 32 v70,2013-06-23 04:46:00,
2013-06-23 00:51:00,73.9,-32.7,29.78,South,180,2.0,6.0,1,0.00,,,0.00,Weather View 32 v70,2013-06-23 04:51:00,
2013-06-23 00:56:00,73.9,-32.7,29.78,South,180,6.0,6.0,1,0.00,,,0.00,Weather View 32 v70,2013-06-23 04:56:00,
2013-06-23 01:01:00,73.9,-32.7,29.78,SSW,202,1.0,6.0,1,0.00,,,0.00,Weather View 32 v70,2013-06-23 05:01:00,
2013-06-23 01:06:00,73.8,-32.8,29.78,SSW,202,2.0,6.0,1,0.00,,,0.00,Weather View 32 v70,2013-06-23 05:06:00,
2013-06-23 01:11:00,73.7,-32.8,29.78,SSW,202,4.0,6.0,1,0.00,,,0.00,Weather View 32 v70,2013-06-23 05:11:00,
2013-06-23 01:16:00,73.7,-32.8,29.78,South,180,1.0,6.0,1,0.00,,,0.00,Weather View 32 v70,2013-06-23 05:16:00,
2013-06-23 01:21:00,73.6,-32.9,29.78,SSW,202,2.0,6.0,1,0.00,,,0.00,Weather View 32 v70,2013-06-23 05:21:00,
2013-06-23 01:26:00,73.6,-32.9,29.77,SSW,202,2.0,6.0,1,0.00,,,0.00,Weather View 32 v70,2013-06-23 05:26:00,
2013-06-23 01:31:00,73.6,-32.9,29.77,South,180,1.0,6.0,1,0.00,,,0.00,Weather View 32 v70,2013-06-23 05:31:00,
2013-06-23 01:36:00,73.5,-33.0,29.77,SSW,202,3.0,6.0,1,0.00,,,0.00,Weather View 32 v70,2013-06-23 05:36:00,
2013-06-23 01:41:00,73.5,-33.0,29.77,SSW,202,2.0,6.0,1,0.00,,,0.00,Weather View 32 v70,2013-06-23 05:41:00,
2013-06-23 01:46:00,73.4,-33.0,29.77,SSW,202,0.0,6.0,1,0.00,,,0.00,Weather View 32 v70,2013-06-23 05:46:00,
2013-06-23 01:51:00,73.4,-33.0,29.77,SSW,202,0.0,6.0,1,0.00,,,0.00,Weather View 32 v70,2013-06-23 05:51:00,
2013-06-23 01:56:00,73.3,-33.1,29.77,SSW,202,0.0,6.0,1,0.00,,,0.00,Weather View 32 v70,2013-06-23 05:56:00,
2013-06-23 02:01:00,73.2,-33.1,29.77,SSW,202,1.0,5.0,1,0.00,,,0.00,Weather View 32 v70,2013-06-23 06:01:00,
2013-06-23 02:06:00,73.1,-33.2,29.77,SSW,202,0.0,5.0,1,0.00,,,0.00,Weather View 32 v70,2013-06-23 06:06:00,
2013-06-23 02:11:00,72.8,-33.4,29.77,SSW,202,1.0,5.0,1,0.00,,,0.00,Weather View 32 v70,2013-06-23 06:11:00,
2013-06-23 02:16:00,72.7,-33.4,29.77,SSW,202,0.0,5.0,1,0.00,,,0.00,Weather View 32 v70,2013-06-23 06:16:00,
2013-06-23 02:21:00,72.6,-33.5,29.77,SSW,202,0.0,4.0,1,0.00,,,0.00,Weather View 32 v70,2013-06-23 06:21:00,
2013-06-23 02:26:00,72.5,-33.6,29.77,SSW,202,0.0,4.0,1,0.00,,,0.00,Weather View 32 v70,2013-06-23 06:26:00,
2013-06-23 02:31:00,72.5,-33.6,29.77,SSW,202,0.0,4.0,1,0.00,,,0.00,Weather View 32 v70,2013-06-23 06:31:00,
2013-06-23 02:36:00,72.5,-33.6,29.77,SSW,202,0.0,4.0,1,0.00,,,0.00,Weather View 32 v70,2013-06-23 06:36:00,
2013-06-23 02:41:00,72.2,-33.7,29.77,SSW,202,0.0,2.0,1,0.00,,,0.00,Weather View 32 v70,2013-06-23 06:41:00,
2013-06-23 02:46:00,72.2,-33.7,29.77,SSW,202,0.0,2.0,1,0.00,,,0.00,Weather View 32 v70,2013-06-23 06:46:00,
2013-06-23 02:51:00,72.1,-33.8,29.77,SSW,202,0.0,2.0,1,0.00,,,0.00,Weather View 32 v70,2013-06-23 06:51:00,
2013-06-23 02:56:00,71.9,-33.9,29.77,SSW,202,0.0,2.0,1,0.00,,,0.00,Weather View 32 v70,2013-06-23 06:56:00,
2013-06-23 03:01:00,71.8,-34.0,29.77,SSW,202,0.0,2.0,1,0.00,,,0.00,Weather View 32 v70,2013-06-23 07:01:00,
2013-06-23 03:06:00,71.6,-34.1,29.76,SSW,202,0.0,2.0,1,0.00,,,0.00,Weather View 32 v70,2013-06-23 07:06:00,
2013-06-23 03:11:00,71.5,-34.2,29.76,SSE,157,1.0,2.0,1,0.00,,,0.00,Weather View 32 v70,2013-06-23 07:11:00,
2013-06-23 03:16:00,71.6,-34.1,29.76,SE,135,1.0,2.0,1,0.00,,,0.00,Weather View 32 v70,2013-06-23 07:16:00,
2013-06-23 03:21:00,71.6,-34.1,29.76,SE,135,2.0,2.0,1,0.00,,,0.00,Weather View 32 v70,2013-06-23 07:21:00,
2013-06-23 03:26:00,71.6,-34.1,29.76,SE,135,1.0,2.0,1,0.00,,,0.00,Weather View 32 v70,2013-06-23 07:26:00,
2013-06-23 03:31:00,71.8,-34.0,29.76,SE,135,2.0,2.0,1,0.00,,,0.00,Weather View 32 v70,2013-06-23 07:31:00,
2013-06-23 03:36:00,71.7,-34.0,29.76,SE,135,1.0,2.0,1,0.00,,,0.00,Weather View 32 v70,2013-06-23 07:36:00,
2013-06-23 03:41:00,71.6,-34.1,29.76,SE,135,1.0,2.0,1,0.00,,,0.00,Weather View 32 v70,2013-06-23 07:41:00,
2013-06-23 03:46:00,71.8,-34.0,29.76,SE,135,1.0,2.0,1,0.00,,,0.00,Weather View 32 v70,2013-06-23 07:46:00,
2013-06-23 03:51:00,71.6,-34.1,29.76,SE,135,2.0,3.0,1,0.00,,,0.00,Weather View 32 v70,2013-06-23 07:51:00,
2013-06-23 03:56:00,71.6,-34.1,29.76,SE,135,1.0,3.0,1,0.00,,,0.00,Weather View 32 v70,2013-06-23 07:56:00,
2013-06-23 04:01:00,71.9,-33.9,29.76,SSE,157,2.0,3.0,1,0.00,,,0.00,Weather View 32 v70,2013-06-23 08:01:00,
2013-06-23 04:06:00,71.9,-33.9,29.76,SE,135,2.0,4.0,1,0.00,,,0.00,Weather View 32 v70,2013-06-23 08:06:00,
2013-06-23 04:11:00,71.8,-34.0,29.76,SE,135,2.0,4.0,1,0.00,,,0.00,Weather View 32 v70,2013-06-23 08:11:00,
2013-06-23 04:16:00,71.7,-34.0,29.76,SE,135,2.0,4.0,1,0.00,,,0.00,Weather View 32 v70,2013-06-23 08:16:00,
2013-06-23 04:21:00,71.8,-34.0,29.76,SE,135,1.0,4.0,1,0.00,,,0.00,Weather View 32 v70,2013-06-23 08:21:00,
2013-06-23 04:26:00,71.7,-34.0,29.76,SE,135,1.0,4.0,1,0.00,,,0.00,Weather View 32 v70,2013-06-23 08:26:00,
2013-06-23 04:31:00,71.8,-34.0,29.76,SE,135,2.0,4.0,1,0.00,,,0.00,Weather View 32 v70,2013-06-23 08:31:00,
2013-06-23 04:36:00,71.8,-34.0,29.75,SE,135,1.0,4.0,1,0.00,,,0.00,Weather View 32 v70,2013-06-23 08:36:00,
2013-06-23 04:41:00,71.7,-34.0,29.76,SE,135,1.0,4.0,1,0.00,,,0.00,Weather View 32 v70,2013-06-23 08:41:00,
2013-06-23 04:46:00,71.6,-34.1,29.76,SE,135,1.0,4.0,1,0.00,,,0.00,Weather View 32 v70,2013-06-23 08:46:00,
2013-06-23 04:51:00,71.5,-34.2,29.76,SE,135,1.0,4.0,1,0.00,,,0.00,Weather View 32 v70,2013-06-23 08:51:00,
2013-06-23 04:56:00,71.5,-34.2,29.76,SE,135,2.0,4.0,1,0.00,,,0.00,Weather View 32 v70,2013-06-23 08:56:00,
2013-06-23 05:01:00,71.3,-34.3,29.76,SE,135,1.0,4.0,1,0.00,,,0.00,Weather View 32 v70,2013-06-23 09:01:00,
2013-06-23 05:06:00,71.4,-34.2,29.76,SE,135,1.0,4.0,1,0.00,,,0.00,Weather View 32 v70,2013-06-23 09:06:00,
2013-06-23 05:11:00,71.5,-34.2,29.76,SE,135,1.0,2.0,1,0.00,,,0.00,Weather View 32 v70,2013-06-23 09:11:00,
2013-06-23 05:16:00,71.4,-34.2,29.76,SE,135,0.0,2.0,1,0.00,,,0.00,Weather View 32 v70,2013-06-23 09:16:00,
2013-06-23 05:21:00,71.5,-34.2,29.76,SE,135,0.0,2.0,1,0.00,,,0.00,Weather View 32 v70,2013-06-23 09:21:00,
2013-06-23 05:26:00,71.5,-34.2,29.76,SE,135,2.0,2.0,1,0.00,,,0.00,Weather View 32 v70,2013-06-23 09:26:00,
2013-06-23 05:31:00,71.8,-34.0,29.76,SSE,157,1.0,2.0,1,0.00,,,0.00,Weather View 32 v70,2013-06-23 09:31:00,
2013-06-23 05:36:00,71.7,-34.0,29.76,SSE,157,1.0,2.0,1,0.00,,,0.00,Weather View 32 v70,2013-06-23 09:36:00,
2013-06-23 05:41:00,71.6,-34.1,29.76,SSE,157,1.0,2.0,1,0.00,,,0.00,Weather View 32 v70,2013-06-23 09:41:00,
2013-06-23 05:46:00,71.6,-34.1,29.76,SSE,157,1.0,2.0,1,0.00,,,0.00,Weather View 32 v70,2013-06-23 09:46:00,
2013-06-23 05:51:00,71.4,-34.2,29.77,SSE,157,0.0,2.0,1,0.00,,,0.00,Weather View 32 v70,2013-06-23 09:51:00,
2013-06-23 05:56:00,71.4,-34.2,29.77,SSE,157,0.0,2.0,1,0.00,,,0.00,Weather View 32 v70,2013-06-23 09:56:00,
2013-06-23 06:01:00,71.5,-34.2,29.77,SSE,157,0.0,2.0,1,0.00,,,0.00,Weather View 32 v70,2013-06-23 10:01:00,
2013-06-23 06:06:00,71.4,-34.2,29.77,SSE,157,0.0,2.0,1,0.00,,,0.00,Weather View 32 v70,2013-06-23 10:06:00,
2013-06-23 06:11:00,71.3,-34.3,29.77,SSE,157,0.0,2.0,1,0.00,,,0.00,Weather View 32 v70,2013-06-23 10:11:00,
2013-06-23 06:16:00,71.2,-34.3,29.77,SSE,157,0.0,2.0,1,0.00,,,0.00,Weather View 32 v70,2013-06-23 10:16:00,
2013-06-23 06:21:00,71.3,-34.3,29.77,SSE,157,0.0,2.0,1,0.00,,,0.00,Weather View 32 v70,2013-06-23 10:21:00,
2013-06-23 06:26:00,71.4,-34.2,29.77,SSE,157,0.0,2.0,1,0.00,,,0.00,Weather View 32 v70,2013-06-23 10:26:00,
2013-06-23 06:31:00,71.3,-34.3,29.77,North,360,1.0,2.0,1,0.00,,,0.00,Weather View 32 v70,2013-06-23 10:31:00,
2013-06-23 06:36:00,71.3,-34.3,29.77,North,360,0.0,2.0,1,0.00,,,0.00,Weather View 32 v70,2013-06-23 10:36:00,
2013-06-23 06:41:00,71.3,-34.3,29.77,North,360,0.0,2.0,1,0.00,,,0.00,Weather View 32 v70,2013-06-23 10:41:00,
2013-06-23 06:46:00,71.2,-34.3,29.77,North,360,0.0,2.0,1,0.00,,,0.00,Weather View 32 v70,2013-06-23 10:46:00,
2013-06-23 06:51:00,71.2,-34.3,29.77,East,90,2.0,2.0,1,0.00,,,0.00,Weather View 32 v70,2013-06-23 10:51:00,
2013-06-23 06:56:00,71.0,-34.5,29.78,East,90,1.0,2.0,1,0.00,,,0.00,Weather View 32 v70,2013-06-23 10:56:00,
2013-06-23 07:01:00,71.0,-34.5,29.78,East,90,2.0,2.0,1,0.00,,,0.00,Weather View 32 v70,2013-06-23 11:01:00,
2013-06-23 07:06:00,71.1,-34.4,29.78,East,90,1.0,2.0,1,0.00,,,0.00,Weather View 32 v70,2013-06-23 11:06:00,
2013-06-23 07:11:00,71.2,-34.3,29.78,East,90,2.0,2.0,1,0.00,,,0.00,Weather View 32 v70,2013-06-23 11:11:00,
2013-06-23 07:16:00,71.4,-34.2,29.79,East,90,2.0,2.0,1,0.00,,,0.00,Weather View 32 v70,2013-06-23 11:16:00,
2013-06-23 07:21:00,71.7,-34.0,29.79,East,90,2.0,2.0,1,0.00,,,0.00,Weather View 32 v70,2013-06-23 11:21:00,
2013-06-23 07:26:00,71.8,-34.0,29.79,NE,45,1.0,2.0,1,0.00,,,0.00,Weather View 32 v70,2013-06-23 11:26:00,
2013-06-23 07:31:00,71.9,-33.9,29.79,NE,45,2.0,3.0,1,0.00,,,0.00,Weather View 32 v70,2013-06-23 11:31:00,
2013-06-23 07:36:00,72.0,-33.9,29.79,East,90,1.0,3.0,1,0.00,,,0.00,Weather View 32 v70,2013-06-23 11:36:00,
2013-06-23 07:41:00,72.3,-33.7,29.79,East,90,2.0,3.0,1,0.00,,,0.00,Weather View 32 v70,2013-06-23 11:41:00,
2013-06-23 07:46:00,72.7,-33.4,29.79,East,90,1.0,3.0,1,0.00,,,0.00,Weather View 32 v70,2013-06-23 11:46:00,
2013-06-23 07:51:00,72.9,-33.3,29.79,East,90,1.0,3.0,1,0.00,,,0.00,Weather View 32 v70,2013-06-23 11:51:00,
2013-06-23 07:56:00,73.3,-33.1,29.80,East,90,1.0,3.0,1,0.00,,,0.00,Weather View 32 v70,2013-06-23 11:56:00,
2013-06-23 08:01:00,73.7,-32.8,29.80,East,90,2.0,3.0,1,0.00,,,0.00,Weather View 32 v70,2013-06-23 12:01:00,
2013-06-23 08:06:00,73.9,-32.7,29.80,East,90,0.0,3.0,1,0.00,,,0.00,Weather View 32 v70,2013-06-23 12:06:00,
2013-06-23 08:11:00,74.1,-32.6,29.81,ENE,67,2.0,3.0,1,0.00,,,0.00,Weather View 32 v70,2013-06-23 12:11:00,
2013-06-23 08:16:00,73.7,-32.8,29.81,ENE,67,0.0,3.0,1,0.00,,,0.00,Weather View 32 v70,2013-06-23 12:16:00,
2013-06-23 08:22:00,73.6,-32.9,29.81,ENE,67,2.0,3.0,1,0.00,,,0.00,Weather View 32 v70,2013-06-23 12:22:00,
2013-06-23 08:27:00,73.8,-32.8,29.81,ENE,67,1.0,3.0,1,0.00,,,0.00,Weather View 32 v70,2013-06-23 12:27:00,
2013-06-23 08:32:00,73.9,-32.7,29.81,ENE,67,0.0,3.0,1,0.00,,,0.00,Weather View 32 v70,2013-06-23 12:32:00,
2013-06-23 08:37:00,74.7,-32.2,29.82,East,90,2.0,2.0,1,0.00,,,0.00,Weather View 32 v70,2013-06-23 12:37:00,
2013-06-23 08:42:00,75.1,-32.0,29.81,East,90,1.0,2.0,1,0.00,,,0.00,Weather View 32 v70,2013-06-23 12:42:00,
2013-06-23 08:47:00,75.5,-31.8,29.82,ESE,112,2.0,4.0,1,0.00,,,0.00,Weather View 32 v70,2013-06-23 12:47:00,
2013-06-23 08:52:00,76.4,-31.2,29.81,East,90,2.0,4.0,1,0.00,,,0.00,Weather View 32 v70,2013-06-23 12:52:00,
2013-06-23 08:57:00,76.7,-31.0,29.81,ESE,112,2.0,4.0,1,0.00,,,0.00,Weather View 32 v70,2013-06-23 12:57:00,
2013-06-23 09:02:00,77.2,-30.7,29.82,East,90,2.0,5.0,1,0.00,,,0.00,Weather View 32 v70,2013-06-23 13:02:00,
2013-06-23 09:07:00,77.4,-30.6,29.82,ESE,112,2.0,5.0,1,0.00,,,0.00,Weather View 32 v70,2013-06-23 13:07:00,
2013-06-23 09:13:00,77.3,-30.7,29.82,ESE,112,2.0,5.0,1,0.00,,,0.00,Weather View 32 v70,2013-06-23 13:13:00,
2013-06-23 09:18:00,78.2,-30.1,29.82,East,90,3.0,5.0,1,0.00,,,0.00,Weather View 32 v70,2013-06-23 13:18:00,
2013-06-23 09:23:00,78.6,-29.9,29.82,ESE,112,2.0,5.0,1,0.00,,,0.00,Weather View 32 v70,2013-06-23 13:23:00,
2013-06-23 09:28:00,79.1,-29.6,29.82,ESE,112,3.0,5.0,1,0.00,,,0.00,Weather View 32 v70,2013-06-23 13:28:00,
2013-06-23 09:33:00,79.9,-29.1,29.82,SE,135,2.0,5.0,1,0.00,,,0.00,Weather View 32 v70,2013-06-23 13:33:00,
2013-06-23 09:38:00,80.0,-29.1,29.82,SE,135,0.0,5.0,1,0.00,,,0.00,Weather View 32 v70,2013-06-23 13:38:00,
2013-06-23 09:43:00,81.7,-28.1,29.82,SW,225,1.0,5.0,1,0.00,,,0.00,Weather View 32 v70,2013-06-23 13:43:00,
2013-06-23 09:48:00,81.2,-28.4,29.82,West,270,1.0,5.0,1,0.00,,,0.00,Weather View 32 v70,2013-06-23 13:48:00,
2013-06-23 09:53:00,79.9,-29.1,29.82,WNW,292,4.0,6.0,1,0.00,,,0.00,Weather View 32 v70,2013-06-23 13:53:00,
2013-06-23 09:58:00,79.2,-29.6,29.83,West,270,2.0,6.0,1,0.00,,,0.00,Weather View 32 v70,2013-06-23 13:58:00,
2013-06-23 10:03:00,78.5,-30.0,29.83,WNW,292,3.0,6.0,1,0.00,,,0.00,Weather View 32 v70,2013-06-23 14:03:00,
2013-06-23 10:08:00,77.9,-30.3,29.83,WNW,292,3.0,6.0,1,0.00,,,0.00,Weather View 32 v70,2013-06-23 14:08:00,
2013-06-23 10:13:00,77.9,-30.3,29.83,NW,315,2.0,6.0,1,0.00,,,0.00,Weather View 32 v70,2013-06-23 14:13:00,
2013-06-23 10:19:00,78.6,-29.9,29.83,NW,315,1.0,6.0,1,0.00,,,0.00,Weather View 32 v70,2013-06-23 14:19:00,
2013-06-23 10:24:00,79.8,-29.2,29.83,NW,315,0.0,6.0,1,0.00,,,0.00,Weather View 32 v70,2013-06-23 14:24:00,
2013-06-23 10:29:00,80.9,-28.5,29.82,West,270,0.0,6.0,1,0.00,,,0.00,Weather View 32 v70,2013-06-23 14:29:00,
2013-06-23 10:34:00,82.2,-27.8,29.82,NNW,337,4.0,6.0,1,0.00,,,0.00,Weather View 32 v70,2013-06-23 14:34:00,
2013-06-23 10:39:00,82.9,-27.4,29.82,WSW,247,3.0,6.0,1,0.00,,,0.00,Weather View 32 v70,2013-06-23 14:39:00,
2013-06-23 10:44:00,83.0,-27.3,29.82,West,270,4.0,7.0,1,0.00,,,0.00,Weather View 32 v70,2013-06-23 14:44:00,
2013-06-23 10:49:00,83.2,-27.2,29.82,South,180,1.0,7.0,1,0.00,,,0.00,Weather View 32 v70,2013-06-23 14:49:00,
2013-06-23 10:54:00,84.1,-26.6,29.82,South,180,2.0,7.0,1,0.00,,,0.00,Weather View 32 v70,2013-06-23 14:54:00,
2013-06-23 10:59:00,84.8,-26.2,29.82,NNW,337,2.0,7.0,1,0.00,,,0.00,Weather View 32 v70,2013-06-23 14:59:00,
2013-06-23 11:04:00,84.8,-26.2,29.82,ESE,112,3.0,7.0,1,0.00,,,0.00,Weather View 32 v70,2013-06-23 15:04:00,
2013-06-23 11:09:00,83.8,-26.8,29.82,SE,135,3.0,7.0,1,0.00,,,0.00,Weather View 32 v70,2013-06-23 15:09:00,
2013-06-23 11:14:00,82.7,-27.5,29.83,South,180,2.0,7.0,1,0.00,,,0.00,Weather View 32 v70,2013-06-23 15:14:00,
2013-06-23 11:20:00,82.6,-27.5,29.82,ESE,112,4.0,7.0,1,0.00,,,0.00,Weather View 32 v70,2013-06-23 15:20:00,
2013-06-23 11:25:00,81.9,-27.9,29.82,SE,135,3.0,7.0,1,0.00,,,0.00,Weather View 32 v70,2013-06-23 15:25:00,
2013-06-23 11:30:00,82.6,-27.5,29.82,ESE,112,3.0,7.0,1,0.00,,,0.00,Weather View 32 v70,2013-06-23 15:30:00,
2013-06-23 11:35:00,81.3,-28.3,29.82,SE,135,4.0,9.0,1,0.00,,,0.00,Weather View 32 v70,2013-06-23 15:35:00,
2013-06-23 11:40:00,82.6,-27.5,29.83,SE,135,6.0,9.0,1,0.00,,,0.00,Weather View 32 v70,2013-06-23 15:40:00,
2013-06-23 11:45:00,82.1,-27.8,29.83,ESE,112,6.0,9.0,1,0.00,,,0.00,Weather View 32 v70,2013-06-23 15:45:00,
2013-06-23 11:50:00,82.4,-27.6,29.83,ESE,112,2.0,9.0,1,0.00,,,0.00,Weather View 32 v70,2013-06-23 15:50:00,
2013-06-23 11:56:00,82.7,-27.5,29.83,East,90,7.0,9.0,1,0.00,,,0.00,Weather View 32 v70,2013-06-23 15:56:00,
2013-06-23 12:01:00,81.9,-27.9,29.83,East,90,7.0,10.0,1,0.00,,,0.00,Weather View 32 v70,2013-06-23 16:01:00,
2013-06-23 12:06:00,81.7,-28.1,29.83,SE,135,3.0,10.0,1,0.00,,,0.00,Weather View 32 v70,2013-06-23 16:06:00,
2013-06-23 12:11:00,81.9,-27.9,29.83,SE,135,6.0,10.0,1,0.00,,,0.00,Weather View 32 v70,2013-06-23 16:11:00,
2013-06-23 12:16:00,81.4,-28.2,29.83,SE,135,6.0,10.0,1,0.00,,,0.00,Weather View 32 v70,2013-06-23 16:16:00,
2013-06-23 12:21:00,82.1,-27.8,29.82,East,90,5.0,10.0,1,0.00,,,0.00,Weather View 32 v70,2013-06-23 16:21:00,
2013-06-23 12:26:00,81.8,-28.0,29.82,ESE,112,1.0,10.0,1,0.00,,,0.00,Weather View 32 v70,2013-06-23 16:26:00,
2013-06-23 12:31:00,83.2,-27.2,29.82,SE,135,3.0,10.0,1,0.00,,,0.00,Weather View 32 v70,2013-06-23 16:31:00,
2013-06-23 12:36:00,83.8,-26.8,29.82,ESE,112,3.0,10.0,1,0.00,,,0.00,Weather View 32 v70,2013-06-23 16:36:00,
2013-06-23 12:41:00,83.6,-26.9,29.81,South,180,2.0,10.0,1,0.00,,,0.00,Weather View 32 v70,2013-06-23 16:41:00,
2013-06-23 12:46:00,84.5,-26.4,29.81,SSE,157,2.0,10.0,1,0.00,,,0.00,Weather View 32 v70,2013-06-23 16:46:00,
2013-06-23 12:51:00,85.9,-25.6,29.81,NE,45,3.0,10.0,1,0.00,,,0.00,Weather View 32 v70,2013-06-23 16:51:00,
2013-06-23 12:57:00,86.4,-25.3,29.81,North,360,1.0,10.0,1,0.00,,,0.00,Weather View 32 v70,2013-06-23 16:57:00,
2013-06-23 12:58:00,86.5,-25.2,29.81,North,360,0.0,10.0,1,0.00,,,0.00,Weather View 32 v70,2013-06-23 16:58:00,
2013-06-23 13:03:00,87.8,-24.5,29.81,East,90,6.0,9.0,1,0.00,,,0.00,Weather View 32 v70,2013-06-23 17:03:00,
2013-06-23 13:08:00,87.1,-3.1,29.81,NE,45,2.0,9.0,3,0.00,,,0.00,Weather View 32 v70,2013-06-23 17:08:00,
2013-06-23 13:13:00,87.3,3.1,29.81,East,90,3.0,9.0,4,0.00,,,0.00,Weather View 32 v70,2013-06-23 17:13:00,
2013-06-23 13:18:00,87.3,-24.7,29.81,NE,45,0.0,9.0,1,0.00,,,0.00,Weather View 32 v70,2013-06-23 17:18:00,
2013-06-23 13:23:00,87.6,-24.6,29.81,North,360,5.0,9.0,1,0.00,,,0.00,Weather View 32 v70,2013-06-23 17:23:00,
2013-06-23 13:28:00,86.4,-25.3,29.81,WNW,292,6.0,9.0,1,0.00,,,0.00,Weather View 32 v70,2013-06-23 17:28:00,
2013-06-23 13:33:00,86.5,-25.2,29.81,NW,315,4.0,9.0,1,0.00,,,0.00,Weather View 32 v70,2013-06-23 17:33:00,
2013-06-23 13:38:00,85.5,-25.8,29.81,WNW,292,7.0,9.0,1,0.00,,,0.00,Weather View 32 v70,2013-06-23 17:38:00,
2013-06-23 13:43:00,85.8,-25.6,29.81,NW,315,6.0,9.0,1,0.00,,,0.00,Weather View 32 v70,2013-06-23 17:43:00,
2013-06-23 13:48:00,85.6,-25.8,29.81,NNW,337,4.0,9.0,1,0.00,,,0.00,Weather View 32 v70,2013-06-23 17:48:00,
2013-06-23 13:53:00,85.5,-25.8,29.80,NNW,337,2.0,9.0,1,0.00,,,0.00,Weather View 32 v70,2013-06-23 17:53:00,
2013-06-23 13:58:00,85.9,-25.6,29.80,NW,315,1.0,9.0,1,0.00,,,0.00,Weather View 32 v70,2013-06-23 17:58:00,
2013-06-23 14:03:00,84.9,-26.2,29.79,SSW,202,1.0,9.0,1,0.00,,,0.00,Weather View 32 v70,2013-06-23 18:03:00,
2013-06-23 14:08:00,84.9,-26.2,29.79,SE,135,3.0,9.0,1,0.00,,,0.00,Weather View 32 v70,2013-06-23 18:08:00,
2013-06-23 14:13:00,85.8,-25.6,29.79,South,180,0.0,9.0,1,0.00,,,0.00,Weather View 32 v70,2013-06-23 18:13:00,
2013-06-23 14:18:00,86.7,-25.1,29.79,East,90,2.0,9.0,1,0.00,,,0.00,Weather View 32 v70,2013-06-23 18:18:00,
2013-06-23 14:23:00,87.9,-24.4,29.79,NW,315,4.0,9.0,1,0.00,,,0.00,Weather View 32 v70,2013-06-23 18:23:00,
2013-06-23 14:28:00,87.5,-24.6,29.78,North,360,2.0,9.0,1,0.00,,,0.00,Weather View 32 v70,2013-06-23 18:28:00,
2013-06-23 14:33:00,86.9,-25.0,29.78,SSW,202,1.0,9.0,1,0.00,,,0.00,Weather View 32 v70,2013-06-23 18:33:00,
2013-06-23 14:38:00,85.5,-25.8,29.78,ESE,112,4.0,8.0,1,0.00,,,0.00,Weather View 32 v70,2013-06-23 18:38:00,
2013-06-23 14:43:00,84.6,-26.3,29.79,SE,135,1.0,7.0,1,0.00,,,0.00,Weather View 32 v70,2013-06-23 18:43:00,
2013-06-23 14:48:00,85.5,-25.8,29.78,SE,135,2.0,7.0,1,0.00,,,0.00,Weather View 32 v70,2013-06-23 18:48:00,
2013-06-23 14:53:00,87.5,-24.6,29.78,SE,135,0.0,7.0,1,0.00,,,0.00,Weather View 32 v70,2013-06-23 18:53:00,
2013-06-23 14:58:00,88.4,-10.6,29.78,ESE,112,6.0,7.0,2,0.00,,,0.00,Weather View 32 v70,2013-06-23 18:58:00,
2013-06-23 15:03:00,87.6,-24.6,29.78,SE,135,6.0,7.0,1,0.00,,,0.00,Weather View 32 v70,2013-06-23 19:03:00,
2013-06-23 15:08:00,85.9,2.2,29.78,ESE,112,2.0,8.0,4,0.00,,,0.00,Weather View 32 v70,2013-06-23 19:08:00,
2013-06-23 15:13:00,85.9,-3.9,29.78,SE,135,4.0,8.0,3,0.00,,,0.00,Weather View 32 v70,2013-06-23 19:13:00,
2013-06-23 15:18:00,85.3,-25.9,29.78,ESE,112,2.0,8.0,1,0.00,,,0.00,Weather View 32 v70,2013-06-23 19:18:00,
2013-06-23 15:23:00,85.6,-25.8,29.77,ESE,112,2.0,8.0,1,0.00,,,0.00,Weather View 32 v70,2013-06-23 19:23:00,
2013-06-23 15:28:00,85.6,-25.8,29.77,SE,135,3.0,8.0,1,0.00,,,0.00,Weather View 32 v70,2013-06-23 19:28:00,
2013-06-23 15:33:00,85.7,-25.7,29.77,ESE,112,4.0,8.0,1,0.00,,,0.00,Weather View 32 v70,2013-06-23 19:33:00,
2013-06-23 15:38:00,85.9,-25.6,29.77,ESE,112,4.0,8.0,1,0.00,,,0.00,Weather View 32 v70,2013-06-23 19:38:00,
2013-06-23 15:43:00,86.7,-25.1,29.77,East,90,6.0,9.0,1,0.00,,,0.00,Weather View 32 v70,2013-06-23 19:43:00,
2013-06-23 15:48:00,85.8,-25.6,29.76,ESE,112,6.0,9.0,1,0.00,,,0.00,Weather View 32 v70,2013-06-23 19:48:00,
2013-06-23 15:53:00,85.5,-25.8,29.76,East,90,5.0,9.0,1,0.00,,,0.00,Weather View 32 v70,2013-06-23 19:53:00,
2013-06-23 15:58:00,84.9,-26.2,29.76,SE,135,2.0,9.0,1,0.00,,,0.00,Weather View 32 v70,2013-06-23 19:58:00,
2013-06-23 16:03:00,86.1,-25.5,29.76,ESE,112,2.0,9.0,1,0.00,,,0.00,Weather View 32 v70,2013-06-23 20:03:00,
2013-06-23 16:08:00,86.3,-25.3,29.76,East,90,4.0,9.0,1,0.00,,,0.00,Weather View 32 v70,2013-06-23 20:08:00,
2013-06-23 16:13:00,86.2,-25.4,29.77,East,90,4.0,9.0,1,0.00,,,0.00,Weather View 32 v70,2013-06-23 20:13:00,
2013-06-23 16:18:00,85.6,-25.8,29.77,East,90,2.0,9.0,1,0.00,,,0.00,Weather View 32 v70,2013-06-23 20:18:00,
2013-06-23 16:23:00,85.3,-25.9,29.76,East,90,2.0,9.0,1,0.00,,,0.00,Weather View 32 v70,2013-06-23 20:23:00,
2013-06-23 16:28:00,85.0,-26.1,29.76,East,90,2.0,9.0,1,0.00,,,0.00,Weather View 32 v70,2013-06-23 20:28:00,
2013-06-23 16:33:00,84.8,-26.2,29.76,East,90,2.0,9.0,1,0.00,,,0.00,Weather View 32 v70,2013-06-23 20:33:00,
2013-06-23 16:38:00,84.7,-26.3,29.77,East,90,0.0,9.0,1,0.00,,,0.00,Weather View 32 v70,2013-06-23 20:38:00,
2013-06-23 16:43:00,84.8,-26.2,29.77,East,90,2.0,9.0,1,0.00,,,0.00,Weather View 32 v70,2013-06-23 20:43:00,
2013-06-23 16:48:00,84.7,-26.3,29.76,ENE,67,1.0,9.0,1,0.00,,,0.00,Weather View 32 v70,2013-06-23 20:48:00,
2013-06-23 16:53:00,84.3,-26.5,29.77,ENE,67,1.0,9.0,1,0.00,,,0.00,Weather View 32 v70,2013-06-23 20:53:00,
2013-06-23 16:58:00,84.2,-26.6,29.77,ENE,67,2.0,9.0,1,0.00,,,0.00,Weather View 32 v70,2013-06-23 20:58:00,
2013-06-23 17:03:00,84.3,-26.5,29.77,ENE,67,0.0,9.0,1,0.00,,,0.00,Weather View 32 v70,2013-06-23 21:03:00,
2013-06-23 17:08:00,83.9,-26.8,29.77,West,270,2.0,9.0,1,0.00,,,0.00,Weather View 32 v70,2013-06-23 21:08:00,
2013-06-23 17:13:00,83.8,-26.8,29.76,West,270,2.0,6.0,1,0.00,,,0.00,Weather View 32 v70,2013-06-23 21:13:00,
2013-06-23 17:18:00,83.6,-26.9,29.76,West,270,1.0,4.0,1,0.00,,,0.00,Weather View 32 v70,2013-06-23 21:18:00,
2013-06-23 17:23:00,83.3,-27.1,29.76,WNW,292,1.0,4.0,1,0.00,,,0.00,Weather View 32 v70,2013-06-23 21:23:00,
2013-06-23 17:28:00,83.3,-27.1,29.75,South,180,2.0,4.0,1,0.00,,,0.00,Weather View 32 v70,2013-06-23 21:28:00,
2013-06-23 17:33:00,82.8,-27.4,29.76,South,180,0.0,3.0,1,0.00,,,0.00,Weather View 32 v70,2013-06-23 21:33:00,
2013-06-23 17:38:00,82.8,-27.4,29.75,SSE,157,0.0,3.0,1,0.00,,,0.00,Weather View 32 v70,2013-06-23 21:38:00,
2013-06-23 17:43:00,82.4,-27.6,29.75,SSE,157,0.0,3.0,1,0.00,,,0.00,Weather View 32 v70,2013-06-23 21:43:00,
2013-06-23 17:48:00,81.9,-27.9,29.76,SSE,157,2.0,3.0,1,0.00,,,0.00,Weather View 32 v70,2013-06-23 21:48:00,
2013-06-23 17:53:00,80.3,-28.9,29.76,ESE,112,6.0,6.0,1,0.00,,,0.00,Weather View 32 v70,2013-06-23 21:53:00,
2013-06-23 17:58:00,79.4,-29.4,29.76,SSE,157,6.0,15.0,1,0.00,,,0.00,Weather View 32 v70,2013-06-23 21:58:00,
2013-06-23 18:03:00,79.2,-29.6,29.77,SE,135,5.0,15.0,1,0.00,,,0.00,Weather View 32 v70,2013-06-23 22:03:00,
2013-06-23 18:08:00,78.9,-29.7,29.76,ESE,112,6.0,15.0,1,0.00,,,0.00,Weather View 32 v70,2013-06-23 22:08:00,
2013-06-23 18:13:00,78.6,-29.9,29.77,ESE,112,7.0,15.0,1,0.00,,,0.00,Weather View 32 v70,2013-06-23 22:13:00,
2013-06-23 18:19:00,78.5,-30.0,29.77,SE,135,4.0,15.0,1,0.00,,,0.00,Weather View 32 v70,2013-06-23 22:19:00,
2013-06-23 18:24:00,78.3,-30.1,29.77,SSE,157,8.0,15.0,1,0.00,,,0.00,Weather View 32 v70,2013-06-23 22:24:00,
2013-06-23 18:29:00,78.6,-29.9,29.77,ESE,112,5.0,15.0,1,0.00,,,0.00,Weather View 32 v70,2013-06-23 22:29:00,
2013-06-23 18:34:00,78.3,-30.1,29.77,SSE,157,6.0,15.0,1,0.00,,,0.00,Weather View 32 v70,2013-06-23 22:34:00,
2013-06-23 18:39:00,77.7,-30.4,29.77,South,180,6.0,15.0,1,0.00,,,0.00,Weather View 32 v70,2013-06-23 22:39:00,
2013-06-23 18:44:00,77.9,-30.3,29.77,SW,225,3.0,15.0,1,0.02,,,0.02,Weather View 32 v70,2013-06-23 22:44:00,
2013-06-23 18:49:00,77.4,-30.6,29.77,SSE,157,4.0,15.0,1,0.02,,,0.02,Weather View 32 v70,2013-06-23 22:49:00,
2013-06-23 18:54:00,77.7,-30.4,29.77,South,180,2.0,15.0,1,0.02,,,0.02,Weather View 32 v70,2013-06-23 22:54:00,
2013-06-23 18:59:00,77.7,-30.4,29.77,SSE,157,3.0,12.0,1,0.02,,,0.02,Weather View 32 v70,2013-06-23 22:59:00,
2013-06-23 19:04:00,78.1,-30.2,29.77,SE,135,2.0,12.0,1,0.02,,,0.02,Weather View 32 v70,2013-06-23 23:04:00,
2013-06-23 19:09:00,78.4,-30.0,29.76,SE,135,1.0,12.0,1,0.02,,,0.02,Weather View 32 v70,2013-06-23 23:09:00,
2013-06-23 19:14:00,78.8,-29.8,29.77,SE,135,1.0,12.0,1,0.02,,,0.02,Weather View 32 v70,2013-06-23 23:14:00,
2013-06-23 19:19:00,79.5,-29.4,29.77,East,90,2.0,10.0,1,0.02,,,0.02,Weather View 32 v70,2013-06-23 23:19:00,
2013-06-23 19:24:00,79.5,-29.4,29.77,East,90,2.0,10.0,1,0.02,,,0.02,Weather View 32 v70,2013-06-23 23:24:00,
2013-06-23 19:29:00,79.4,-29.4,29.77,East,90,2.0,8.0,1,0.02,,,0.02,Weather View 32 v70,2013-06-23 23:29:00,
2013-06-23 19:34:00,79.1,-29.6,29.77,East,90,4.0,8.0,1,0.02,,,0.02,Weather View 32 v70,2013-06-23 23:34:00,
2013-06-23 19:39:00,78.9,-29.7,29.78,East,90,1.0,7.0,1,0.02,,,0.02,Weather View 32 v70,2013-06-23 23:39:00,
2013-06-23 19:44:00,78.7,-29.8,29.78,East,90,2.0,6.0,1,0.00,,,0.02,Weather View 32 v70,2013-06-23 23:44:00,
2013-06-23 19:49:00,78.5,-30.0,29.78,ESE,112,1.0,6.0,1,0.00,,,0.02,Weather View 32 v70,2013-06-23 23:49:00,
2013-06-23 19:54:00,78.3,-30.1,29.78,ESE,112,1.0,5.0,1,0.00,,,0.02,Weather View 32 v70,2013-06-23 23:54:00,
2013-06-23 19:59:00,78.2,-30.1,29.78,SE,135,2.0,5.0,1,0.00,,,0.02,Weather View 32 v70,2013-06-23 23:59:00,
2013-06-23 20:04:00,78.1,-30.2,29.77,SE,135,3.0,5.0,1,0.00,,,0.02,Weather View 32 v70,2013-06-24 00:04:00,
2013-06-23 20:09:00,77.8,-30.4,29.77,SE,135,2.0,5.0,1,0.00,,,0.02,Weather View 32 v70,2013-06-24 00:09:00,
2013-06-23 20:14:00,77.6,-30.5,29.77,SE,135,3.0,5.0,1,0.00,,,0.02,Weather View 32 v70,2013-06-24 00:14:00,
2013-06-23 20:19:00,77.5,-30.6,29.77,SE,135,3.0,6.0,1,0.00,,,0.02,Weather View 32 v70,2013-06-24 00:19:00,
2013-06-23 20:24:00,77.4,-30.6,29.77,SSE,157,5.0,6.0,1,0.00,,,0.02,Weather View 32 v70,2013-06-24 00:24:00,
2013-06-23 20:29:00,77.3,-30.7,29.78,SSE,157,2.0,6.0,1,0.00,,,0.02,Weather View 32 v70,2013-06-24 00:29:00,
2013-06-23 20:34:00,77.2,-30.7,29.78,SSE,157,4.0,6.0,1,0.00,,,0.02,Weather View 32 v70,2013-06-24 00:34:00,
2013-06-23 20:39:00,76.9,-30.9,29.78,South,180,3.0,9.0,1,0.00,,,0.02,Weather View 32 v70,2013-06-24 00:39:00,
2013-06-23 20:44:00,76.9,-30.9,29.78,SE,135,2.0,9.0,1,0.00,,,0.02,Weather View 32 v70,2013-06-24 00:44:00,
2013-06-23 20:49:00,76.8,-31.0,29.78,South,180,2.0,9.0,1,0.00,,,0.02,Weather View 32 v70,2013-06-24 00:49:00,
2013-06-23 20:54:00,76.6,-31.1,29.79,SSE,157,2.0,9.0,1,0.00,,,0.02,Weather View 32 v70,2013-06-24 00:54:00,
2013-06-23 20:59:00,76.4,-31.2,29.78,SE,135,2.0,9.0,1,0.00,,,0.02,Weather View 32 v70,2013-06-24 00:59:00,
2013-06-23 21:04:00,76.2,-31.3,29.78,SE,135,2.0,9.0,1,0.00,,,0.02,Weather View 32 v70,2013-06-24 01:04:00,
2013-06-23 21:09:00,75.9,-31.5,29.78,SE,135,1.0,9.0,1,0.00,,,0.02,Weather View 32 v70,2013-06-24 01:09:00,
2013-06-23 21:14:00,75.8,-31.6,29.79,SE,135,1.0,9.0,1,0.00,,,0.02,Weather View 32 v70,2013-06-24 01:14:00,
2013-06-23 21:19:00,75.8,-31.6,29.79,SE,135,1.0,9.0,1,0.00,,,0.02,Weather View 32 v70,2013-06-24 01:19:00,
2013-06-23 21:24:00,75.7,-31.6,29.79,South,180,1.0,9.0,1,0.00,,,0.02,Weather View 32 v70,2013-06-24 01:24:00,
2013-06-23 21:29:00,75.6,-31.7,29.79,South,180,1.0,9.0,1,0.00,,,0.02,Weather View 32 v70,2013-06-24 01:29:00,
2013-06-23 21:34:00,75.6,-31.7,29.80,SSE,157,2.0,9.0,1,0.00,,,0.02,Weather View 32 v70,2013-06-24 01:34:00,
2013-06-23 21:39:00,75.5,-31.8,29.80,SSE,157,2.0,9.0,1,0.00,,,0.02,Weather View 32 v70,2013-06-24 01:39:00,
2013-06-23 21:44:00,75.5,-31.8,29.80,SSE,157,1.0,5.0,1,0.00,,,0.02,Weather View 32 v70,2013-06-24 01:44:00,
2013-06-23 21:49:00,75.3,-31.9,29.80,SSE,157,2.0,4.0,1,0.00,,,0.02,Weather View 32 v70,2013-06-24 01:49:00,
2013-06-23 21:54:00,75.1,-32.0,29.80,SSE,157,2.0,4.0,1,0.00,,,0.02,Weather View 32 v70,2013-06-24 01:54:00,
2013-06-23 21:59:00,74.8,-32.2,29.80,SE,135,1.0,4.0,1,0.00,,,0.02,Weather View 32 v70,2013-06-24 01:59:00,
2013-06-23 22:04:00,74.8,-32.2,29.80,SE,135,1.0,3.0,1,0.00,,,0.02,Weather View 32 v70,2013-06-24 02:04:00,
2013-06-23 22:09:00,74.7,-32.2,29.80,SE,135,1.0,3.0,1,0.00,,,0.02,Weather View 32 v70,2013-06-24 02:09:00,
2013-06-23 22:14:00,74.7,-32.2,29.81,SSE,157,2.0,3.0,1,0.00,,,0.02,Weather View 32 v70,2013-06-24 02:14:00,
2013-06-23 22:19:00,74.5,-32.4,29.80,SSE,157,1.0,3.0,1,0.00,,,0.02,Weather View 32 v70,2013-06-24 02:19:00,
2013-06-23 22:24:00,74.5,-32.4,29.80,SSE,157,3.0,3.0,1,0.00,,,0.02,Weather View 32 v70,2013-06-24 02:24:00,
2013-06-23 22:29:00,74.3,-32.5,29.81,SE,135,1.0,4.0,1,0.00,,,0.02,Weather View 32 v70,2013-06-24 02:29:00,
2013-06-23 22:34:00,74.4,-32.4,29.80,SE,135,2.0,4.0,1,0.00,,,0.02,Weather View 32 v70,2013-06-24 02:34:00,
2013-06-23 22:39:00,74.3,-32.5,29.81,SE,135,2.0,4.0,1,0.00,,,0.02,Weather View 32 v70,2013-06-24 02:39:00,
2013-06-23 22:44:00,74.3,-32.5,29.80,SE,135,1.0,4.0,1,0.00,,,0.02,Weather View 32 v70,2013-06-24 02:44:00,
2013-06-23 22:49:00,74.3,-32.5,29.80,SE,135,2.0,4.0,1,0.00,,,0.02,Weather View 32 v70,2013-06-24 02:49:00,
2013-06-23 22:54:00,74.2,-32.5,29.79,SE,135,1.0,4.0,1,0.00,,,0.02,Weather View 32 v70,2013-06-24 02:54:00,
2013-06-23 22:59:00,74.1,-32.6,29.80,SE,135,0.0,4.0,1,0.00,,,0.02,Weather View 32 v70,2013-06-24 02:59:00,
2013-06-23 23:04:00,74.2,-32.5,29.80,SE,135,0.0,4.0,1,0.00,,,0.02,Weather View 32 v70,2013-06-24 03:04:00,
2013-06-23 23:09:00,74.1,-32.6,29.80,SE,135,2.0,4.0,1,0.00,,,0.02,Weather View 32 v70,2013-06-24 03:09:00,
2013-06-23 23:14:00,73.9,-32.7,29.80,SE,135,0.0,4.0,1,0.00,,,0.02,Weather View 32 v70,2013-06-24 03:14:00,
2013-06-23 23:19:00,73.9,-32.7,29.80,East,90,2.0,4.0,1,0.00,,,0.02,Weather View 32 v70,2013-06-24 03:19:00,
2013-06-23 23:24:00,73.9,-32.7,29.79,East,90,1.0,4.0,1,0.00,,,0.02,Weather View 32 v70,2013-06-24 03:24:00,
2013-06-23 23:29:00,73.9,-32.7,29.80,East,90,1.0,4.0,1,0.00,,,0.02,Weather View 32 v70,2013-06-24 03:29:00,
2013-06-23 23:34:00,73.8,-32.8,29.80,East,90,1.0,3.0,1,0.00,,,0.02,Weather View 32 v70,2013-06-24 03:34:00,
2013-06-23 23:39:00,73.8,-32.8,29.80,East,90,1.0,3.0,1,0.00,,,0.02,Weather View 32 v70,2013-06-24 03:39:00,
2013-06-23 23:44:00,73.7,-32.8,29.80,East,90,2.0,3.0,1,0.00,,,0.02,Weather View 32 v70,2013-06-24 03:44:00,
2013-06-23 23:49:00,73.6,-32.9,29.80,ESE,112,1.0,3.0,1,0.00,,,0.02,Weather View 32 v70,2013-06-24 03:49:00,
2013-06-23 23:54:00,73.5,-33.0,29.80,ESE,112,0.0,3.0,1,0.00,,,0.02,Weather View 32 v70,2013-06-24 03:54:00,
2013-06-23 23:59:00,73.4,-33.0,29.80,ESE,112,0.0,3.0,1,0.00,,,0.02,Weather View 32 v70,2013-06-24 03:59:00,